Location: Oshawa
(43.9000°N, 78.8670°W)
Time: 09:11:16
(UTC-05:00)

Thor Agena Rocket - Visible Passes

Search period start: 22 January 2017 00:00
Search period end: 01 February 2017 00:00
Orbit: 760 x 808 km, 99.1° (Epoch: 21 January)

Date Brightness Start Highest point End Pass type
(mag) Time Alt. Az. Time Alt. Az. Time Alt. Az.
22 Jan 6.1 03:58:07 10° SE 03:58:50 14° SE 03:58:50 14° SE visible
22 Jan 5.0 05:37:17 10° SSW 05:39:26 22° SW 05:39:26 22° SW visible
22 Jan 3.6 17:47:09 10° NNE 17:52:25 71° ESE 17:57:33 10° S visible
22 Jan 6.1 19:27:46 10° NNW 19:31:06 17° WNW 19:34:25 10° W visible
23 Jan 4.9 05:05:27 10° S 05:07:55 28° S 05:07:55 28° S visible
23 Jan 5.4 18:55:42 10° N 19:00:14 30° WNW 19:04:42 10° SW visible
24 Jan 5.3 04:34:15 10° SSE 04:36:24 25° SSE 04:36:24 25° SSE visible
24 Jan 5.4 06:15:59 10° SW 06:17:01 13° WSW 06:17:01 13° WSW visible
24 Jan 4.3 18:24:06 10° N 18:29:13 56° WNW 18:34:14 10° SSW visible
25 Jan 5.9 04:03:36 10° SE 04:04:54 17° SE 04:04:54 17° SE visible
25 Jan 4.9 05:43:04 10° SSW 05:45:31 23° SW 05:45:31 23° SW visible
25 Jan 3.5 17:52:47 10° NNE 17:58:02 79° ESE 18:03:11 10° SSW visible
25 Jan 6.2 19:33:37 10° NNW 19:36:40 16° WNW 19:39:41 10° W visible
26 Jan 4.6 05:11:08 10° S 05:14:01 32° SSW 05:14:01 32° SSW visible
26 Jan 5.5 19:01:27 10° N 19:05:49 28° WNW 19:10:08 10° WSW visible
27 Jan 4.9 04:39:50 10° SSE 04:42:32 31° SSE 04:42:32 31° SSE visible
27 Jan 5.4 06:22:01 10° SW 06:23:09 13° WSW 06:23:09 13° WSW visible
27 Jan 4.5 18:29:47 10° N 18:34:49 50° WNW 18:39:46 10° SW visible
28 Jan 5.6 04:09:07 10° SE 04:11:04 22° ESE 04:11:04 22° ESE visible
28 Jan 4.8 05:48:53 10° SSW 05:51:41 24° SW 05:51:41 24° SW visible
28 Jan 3.6 17:58:26 10° NNE 18:03:40 86° ESE 18:08:48 10° SSW visible
28 Jan 6.3 19:39:31 10° NNW 19:42:13 14° WNW 19:44:54 10° W visible
29 Jan 6.3 03:39:01 10° ESE 03:39:37 12° ESE 03:39:37 12° ESE visible
29 Jan 4.3 05:16:50 10° S 05:20:14 37° SSW 05:20:14 37° SSW visible
29 Jan 5.7 19:07:12 10° N 19:11:23 25° WNW 19:15:32 10° WSW visible
30 Jan 4.5 04:45:27 10° SSE 04:48:48 41° SSE 04:48:48 41° SSE visible
30 Jan 5.4 06:28:10 10° WSW 06:29:24 12° WSW 06:29:24 12° WSW visible
30 Jan 4.6 18:35:28 10° N 18:40:25 46° WNW 18:45:17 10° SW visible
31 Jan 5.2 04:14:38 10° SE 04:17:22 28° ESE 04:17:22 28° ESE visible
31 Jan 4.7 05:54:44 10° SSW 05:57:59 24° WSW 05:57:59 24° WSW visible
31 Jan 3.6 18:04:04 10° NNE 18:09:17 86° WNW 18:14:24 10° SSW visible
31 Jan 6.4 19:45:28 10° NNW 19:47:46 13° NW 19:50:04 10° W visible
